Location: Drebach
(50.6670°N, 13.0330°E)
Time: 06:28:09
(UTC+01:00)

ISS - Pass Details

Date: 02 February 2021
Orbit: 417 x 422 km, 51.6° (Epoch: 08 March)

Event Time Altitude Azimuth Distance (km) Brightness Sun altitude
Rises 18:05:33 0° 285° (WNW) 2,374 1.3 -10.3°
Reaches altitude 10° 18:07:39 10° 282° (WNW) 1,509 0.2 -10.6°
Maximum altitude 18:11:01 64° 201° (SSW) 472 -3.4 -11.1°
Enters shadow 18:14:08 12° 120° (ESE) 1,416 -1.5 -11.6°
